[[{"header":{"parameterUnit":"m.s-1","parameterCategory":1,"la1":30.2991,"la2":30.254,"lo1":-89.0895,"lo2":-89.0444,"dx":0.0017,"dy":0.0017,"nx":28,"ny":28,"refTime":"2022-12-14T15:00:00:Z","depth":0,"parameterNumber":2,"parameterNumberName":"U-component_of_WINDS"},"data":[0,0,0,0,0,0,0,0,0,0,0,0,0,0,0,0,0,0,0,0,0,0,0,0,0,0,0,0,0,0,0,0,0,0,0,0,0,0,0,0,0,0,0,0,0,0,0,0,0,0,0,0,0,0,0,0,0,0,2.812,2.8121,0,2.8225,2.8227,2.8228,2.8186,2.8184,2.8181,2.8179,2.8289,2.8294,2.8299,0,0,0,0,0,0,0,0,0,0,0,0,0,2.7884,2.7888,2.8119,2.8121,2.8122,2.8225,2.8227,2.8228,2.8187,2.8184,2.8181,2.8178,2.8287,2.8293,2.8299,0,0,0,0,0,0,0,0,0,0,0,0,0,2.7988,2.789,2.8119,2.8114,2.8114,2.8225,2.8227,2.8229,2.8187,2.8183,2.818,2.8176,2.8285,2.8293,2.83,2.8423,0,0,2.8324,2.8328,0,0,0,0,0,0,0,0,2.7982,2.7996,2.8113,2.8114,2.8115,2.8189,2.8184,2.8294,2.8188,2.816,2.8179,2.8175,2.8259,2.8268,2.8296,2.8428,2.8433,2.8325,2.833,2.8333,2.8335,0,0,0,0,0,0,0,2.7975,2.7992,2.8161,2.8115,2.8116,2.8107,2.8118,2.8205,2.8229,2.8162,2.8159,2.8172,2.8258,2.8289,2.8299,2.8434,2.8325,2.8332,2.8337,2.834,2.8674,2.8678,0,0,0,0,0,0,2.7967,2.7986,2.8158,2.8165,2.8038,2.8114,2.8126,2.8169,2.8228,2.8233,2.8175,2.817,2.8277,2.829,2.8302,2.8451,2.8333,2.834,2.8345,2.867,2.8675,2.8679,0,0,0,0,0,0,2.7962,2.7983,2.8154,2.8075,2.8096,2.8122,2.8171,2.8173,2.8203,2.8238,2.8242,2.8202,2.8275,2.8291,2.8394,2.8454,2.8344,2.8351,2.8665,2.8671,2.8677,2.8748,0,0,0,0,0,0,2.7955,2.7981,2.8027,2.8076,2.81,2.8243,2.8174,2.8178,2.8217,2.8211,2.8264,2.8269,2.8273,2.8382,2.8401,2.8463,2.8357,2.866,2.8668,2.8675,2.874,2.8755,2.8769,0,0,0,0,0,2.7947,2.8043,2.803,2.8051,2.8158,2.8246,2.826,2.8263,2.8222,2.8269,2.8291,2.8267,2.8444,2.8393,2.8414,2.8479,2.8656,2.8665,2.8675,2.8734,2.8752,2.8768,0,0,0,0,0,0,2.8001,2.8049,2.8035,2.8149,2.8194,2.8239,2.8298,2.8282,2.834,2.8332,2.8333,2.8345,2.8451,2.8475,2.8417,2.8601,2.8544,2.8558,2.8582,2.86,2.8614,2.8606,2.8364,0,0,0,0,0,2.8026,2.8093,2.8132,2.8229,2.8252,2.8272,2.831,2.8308,2.8355,2.8373,2.8403,2.8449,2.8516,2.8559,2.8622,2.8744,2.8755,2.8799,2.8813,2.8825,2.8837,2.8904,2.8924,2.871,2.871,2.871,0,0,2.8078,2.8113,2.8155,2.824,2.8275,2.8345,2.8287,2.8364,2.8416,2.8385,2.8483,2.8507,2.8559,2.8672,2.8723,2.8695,2.8899,2.8837,2.8846,2.8852,2.8916,2.8936,2.8954,2.8717,2.8715,2.8714,0,0,2.821,2.8243,2.8327,2.8363,2.8416,2.8429,2.8449,2.8497,2.8512,2.8611,2.8589,2.8652,2.8766,2.8804,2.8838,2.8987,2.8967,2.9007,2.9082,2.9148,2.9165,2.918,2.9233,2.9252,2.9019,2.902,2.902,0,2.8268,2.8372,2.8373,2.8452,2.849,2.8466,2.8552,2.8587,2.8658,2.8686,2.8654,2.8797,2.883,2.8952,2.8989,2.9017,2.9041,2.9001,2.9162,2.9177,2.9191,2.9242,2.9262,2.9024,2.9024,2.9023,2.9023,0,2.8442,2.8515,2.8577,2.8646,2.8692,2.8774,2.8788,2.8835,2.883,2.8847,2.8948,2.8988,2.9058,2.9088,2.9083,2.921,2.9191,2.9161,2.9103,2.9216,2.9264,2.9283,2.9031,2.9029,2.9028,2.9026,0,0,2.8609,2.8678,2.8701,2.8733,2.879,2.8847,2.8929,2.8998,2.9038,2.9088,2.9157,2.9255,2.9228,2.9267,2.9267,2.9325,2.9441,2.9288,2.9289,2.9315,2.9584,2.9606,2.9628,2.9429,2.9432,2.9435,2.9579,0,2.8745,2.8887,2.8891,2.9022,2.909,2.9069,2.914,2.9184,2.9202,2.9263,2.9283,2.9353,2.9311,2.9335,2.9391,2.9415,2.9495,2.9405,2.9494,2.9497,2.9481,2.9653,2.9676,2.981,2.9598,2.9601,2.9603,0,2.8922,2.8978,2.9115,2.9164,2.9193,2.9257,2.9321,2.938,2.9429,2.9439,2.9483,2.9475,2.956,2.9501,2.9618,2.9556,2.9593,2.9611,2.9616,2.9624,2.9556,2.9666,2.9853,2.9873,2.9633,2.963,2.9628,0,2.903,2.914,2.9237,2.9264,2.9324,2.937,2.9397,2.9442,2.9484,2.9541,2.9568,2.9635,2.9671,2.9723,2.9733,2.9689,2.9851,2.9792,2.9862,2.9862,2.9896,2.9894,3.0092,2.9921,2.9921,2.992,2.992,0,2.9181,2.9266,2.9286,2.9346,2.9441,2.9446,2.954,2.9564,2.9606,2.967,2.9656,2.9717,2.9728,2.9792,2.9801,2.9897,2.9914,2.9924,2.9925,2.9925,2.9924,2.9949,2.994,2.9926,2.9924,2.9923,2.9923,0,2.9318,2.9334,2.9438,2.9487,2.9501,2.9569,2.961,2.9668,2.9685,2.9767,2.9787,2.9814,2.9889,2.9905,2.9993,2.9999,3.0114,3.0106,3.0097,3.0096,3.0165,3.0158,3.0386,3.0416,3.0226,3.0227,3.0229,0,2.9413,2.9478,2.9533,2.9575,2.9604,2.9672,2.9715,2.9723,2.9768,2.9831,2.9881,2.9954,3.0013,3.0133,3.0161,3.0229,3.0223,3.0298,3.0233,3.0231,3.0224,3.022,3.0227,3.031,3.0312,3.0314,3.0315,0,2.958,2.9585,2.9647,2.9712,2.9764,2.9816,2.9865,2.9901,2.9916,2.9967,3.0043,3.0089,3.018,3.0253,3.0321,3.035,3.0336,3.0336,3.0356,3.0356,3.0348,3.0353,3.0131,3.033,3.0329,3.0328,3.0327,3.0326,2.9698,2.9756,2.9804,2.9873,2.9912,2.9958,3.0015,3.004,3.0103,3.0177,3.0179,3.0262,3.0311,3.0402,3.0435,3.0501,3.0478,3.0506,3.0513,3.052,3.0526,3.0338,3.0514,3.0513,3.0513,3.0512,3.0512,0,2.9865,2.9895,2.9959,3.0029,3.0084,3.0066,3.012,3.0168,3.0241,3.0288,3.0347,3.0435,3.0506,3.0541,3.0611,3.0657,3.0653,3.0676,3.0672,3.0679,3.0543,3.0519,3.0678,3.0678,3.0678,3.0678,3.0678,3.0678,2.9958,3.0054,3.0065,3.0181,3.021,3.0291,3.0324,3.0368,3.0406,3.0504,3.0563,3.0585,3.0628,3.0702,3.0767,3.0775,3.0802,3.0828,3.0833,3.0706,3.0689,3.0672,3.065,3.0834,3.0834,3.0964,3.0965,3.0966]},{"header":{"parameterUnit":"m.s-1","parameterCategory":1,"la1":30.2991,"la2":30.254,"lo1":-89.0895,"lo2":-89.0444,"dx":0.0017,"dy":0.0017,"nx":28,"ny":28,"refTime":"2022-12-14T15:00:00:Z","depth":0,"parameterNumber":3,"parameterNumberName":"V-component_of_WINDS"},"data":[0,0,0,0,0,0,0,0,0,0,0,0,0,0,0,0,0,0,0,0,0,0,0,0,0,0,0,0,0,0,0,0,0,0,0,0,0,0,0,0,0,0,0,0,0,0,0,0,0,0,0,0,0,0,0,0,0,0,-2.8741,-2.8743,0,-2.8842,-2.8843,-2.8844,-2.8814,-2.8812,-2.881,-2.8808,-2.8911,-2.8916,-2.892,0,0,0,0,0,0,0,0,0,0,0,0,0,-2.8523,-2.8528,-2.8741,-2.8743,-2.8744,-2.8842,-2.8843,-2.8845,-2.8815,-2.8812,-2.881,-2.8807,-2.891,-2.8915,-2.8921,0,0,0,0,0,0,0,0,0,0,0,0,0,-2.862,-2.8529,-2.8741,-2.8741,-2.8742,-2.8842,-2.8843,-2.8845,-2.8815,-2.8812,-2.8809,-2.8806,-2.8908,-2.8915,-2.8922,-2.9028,0,0,-2.8943,-2.8946,0,0,0,0,0,0,0,0,-2.8615,-2.8628,-2.874,-2.8741,-2.8742,-2.8812,-2.8804,-2.8906,-2.8816,-2.8787,-2.8808,-2.8805,-2.8881,-2.889,-2.8916,-2.9032,-2.9037,-2.8944,-2.8948,-2.8951,-2.8953,0,0,0,0,0,0,0,-2.8608,-2.8624,-2.8781,-2.8741,-2.8743,-2.8736,-2.8746,-2.8823,-2.885,-2.879,-2.8788,-2.88,-2.8881,-2.8909,-2.8918,-2.9038,-2.8943,-2.895,-2.8954,-2.8957,-2.9247,-2.925,0,0,0,0,0,0,-2.8601,-2.8619,-2.8778,-2.8784,-2.867,-2.8742,-2.8754,-2.8793,-2.885,-2.8855,-2.8803,-2.8798,-2.8898,-2.891,-2.8921,-2.9049,-2.8951,-2.8957,-2.8961,-2.9243,-2.9247,-2.9251,0,0,0,0,0,0,-2.8596,-2.8615,-2.8774,-2.8701,-2.8721,-2.8749,-2.8794,-2.8797,-2.8825,-2.8859,-2.8864,-2.8826,-2.8896,-2.8911,-2.9001,-2.9052,-2.8961,-2.8967,-2.9239,-2.9244,-2.9249,-2.9305,0,0,0,0,0,0,-2.859,-2.8614,-2.8654,-2.8702,-2.8725,-2.8853,-2.8797,-2.8801,-2.8837,-2.8832,-2.8883,-2.8888,-2.8895,-2.8991,-2.9008,-2.906,-2.8972,-2.9235,-2.9241,-2.9248,-2.9299,-2.9311,-2.9322,0,0,0,0,0,-2.8582,-2.8666,-2.8657,-2.8676,-2.8776,-2.8855,-2.8868,-2.8875,-2.8841,-2.8882,-2.8904,-2.8886,-2.9044,-2.9,-2.902,-2.9074,-2.9231,-2.924,-2.9247,-2.9293,-2.9309,-2.9322,0,0,0,0,0,0,-2.8624,-2.8672,-2.8662,-2.8764,-2.8806,-2.885,-2.8902,-2.8891,-2.8943,-2.8937,-2.8942,-2.8954,-2.9046,-2.9069,-2.902,-2.918,-2.9133,-2.9145,-2.9161,-2.9176,-2.9188,-2.918,-2.8978,0,0,0,0,0,-2.8645,-2.8705,-2.8744,-2.8831,-2.8852,-2.8874,-2.8908,-2.891,-2.8953,-2.8971,-2.9,-2.9042,-2.9101,-2.914,-2.9196,-2.9302,-2.9312,-2.9349,-2.9361,-2.937,-2.938,-2.9438,-2.9454,-2.9277,-2.9277,-2.9277,0,0,-2.8689,-2.8723,-2.8761,-2.884,-2.8872,-2.8935,-2.8889,-2.8957,-2.9003,-2.8981,-2.9068,-2.909,-2.9138,-2.9236,-2.9281,-2.9259,-2.9432,-2.938,-2.9388,-2.9393,-2.9447,-2.9464,-2.9479,-2.9282,-2.9281,-2.928,0,0,-2.8801,-2.8833,-2.8908,-2.8941,-2.8991,-2.9005,-2.9023,-2.9069,-2.9083,-2.917,-2.9155,-2.921,-2.9311,-2.9346,-2.9377,-2.9502,-2.9487,-2.952,-2.9582,-2.9637,-2.9651,-2.9664,-2.9708,-2.9724,-2.953,-2.9531,-2.9531,0,-2.8849,-2.8943,-2.8948,-2.9017,-2.9052,-2.9035,-2.9111,-2.9143,-2.9209,-2.9233,-2.9207,-2.9334,-2.9365,-2.9471,-2.9501,-2.9527,-2.9548,-2.9514,-2.9649,-2.9662,-2.9673,-2.9715,-2.9732,-2.9534,-2.9534,-2.9533,-2.9533,0,-2.9,-2.9065,-2.9119,-2.9183,-2.9224,-2.9296,-2.9312,-2.9353,-2.9351,-2.9367,-2.9456,-2.9493,-2.9556,-2.9581,-2.958,-2.9687,-2.9671,-2.9647,-2.96,-2.9694,-2.9733,-2.975,-2.9539,-2.9538,-2.9537,-2.9536,0,0,-2.9141,-2.9206,-2.9226,-2.9254,-2.9308,-2.9358,-2.9429,-2.9491,-2.9526,-2.9572,-2.9632,-2.9718,-2.9696,-2.9731,-2.9733,-2.9782,-2.9878,-2.9752,-2.9753,-2.9774,-2.9998,-3.0016,-3.0034,-2.9869,-2.9872,-2.9874,-2.9994,0,-2.9257,-2.9382,-2.9389,-2.9503,-2.9563,-2.9547,-2.9609,-2.9649,-2.9666,-2.9719,-2.9738,-2.9799,-2.9765,-2.9787,-2.9834,-2.9856,-2.9923,-2.9848,-2.9924,-2.9927,-2.9912,-3.0055,-3.0074,-3.0185,-3.0009,-3.0012,-3.0014,0,-2.941,-2.946,-2.9579,-2.9624,-2.9649,-2.9705,-2.9762,-2.9813,-2.9857,-2.9866,-2.9906,-2.9901,-2.9974,-2.9924,-3.0024,-2.9973,-3.0005,-3.002,-3.0025,-3.0032,-2.9976,-3.0066,-3.022,-3.0237,-3.0038,-3.0037,-3.0035,0,-2.95,-2.9598,-2.9682,-2.9707,-2.9761,-2.98,-2.9824,-2.9866,-2.9902,-2.9952,-2.9975,-3.0033,-3.0065,-3.0109,-3.012,-3.0083,-3.022,-3.0172,-3.023,-3.0229,-3.0259,-3.0257,-3.0421,-3.028,-3.028,-3.0279,-3.0279,0,-2.9629,-2.9703,-2.9723,-2.9775,-2.9857,-2.9863,-2.9945,-2.9966,-3.0003,-3.0058,-3.0049,-3.0101,-3.0112,-3.0167,-3.0176,-3.0257,-3.0272,-3.0281,-3.0282,-3.0282,-3.0281,-3.0302,-3.0295,-3.0284,-3.0283,-3.0282,-3.0281,0,-2.9744,-2.976,-2.9851,-2.9895,-2.9907,-2.9966,-3.0003,-3.0053,-3.0069,-3.0139,-3.0156,-3.0181,-3.0245,-3.026,-3.0336,-3.0342,-3.0438,-3.0432,-3.0423,-3.0423,-3.048,-3.0474,-3.0663,-3.0688,-3.0531,-3.0533,-3.0534,0,-2.9825,-2.9882,-2.9931,-2.9967,-2.9993,-3.0052,-3.0089,-3.0098,-3.0137,-3.0192,-3.0235,-3.0297,-3.0348,-3.045,-3.0475,-3.0533,-3.0528,-3.0591,-3.0537,-3.0534,-3.0529,-3.0525,-3.0531,-3.0601,-3.0602,-3.0604,-3.0605,0,-2.9967,-2.9973,-3.0026,-3.0083,-3.0128,-3.0173,-3.0216,-3.0246,-3.0261,-3.0305,-3.037,-3.0409,-3.0487,-3.0549,-3.0607,-3.0632,-3.0621,-3.0622,-3.0638,-3.0638,-3.063,-3.0635,-3.0451,-3.0617,-3.0616,-3.0615,-3.0614,-3.0614,-3.0068,-3.0117,-3.0159,-3.022,-3.0253,-3.0293,-3.0342,-3.0364,-3.0418,-3.0481,-3.0483,-3.0554,-3.0596,-3.0673,-3.0702,-3.0757,-3.0738,-3.0762,-3.0768,-3.0773,-3.0778,-3.0621,-3.0768,-3.0767,-3.0767,-3.0767,-3.0766,0,-3.0209,-3.0236,-3.0291,-3.0351,-3.0399,-3.0384,-3.0431,-3.0471,-3.0534,-3.0574,-3.0624,-3.0698,-3.0758,-3.0788,-3.0847,-3.0886,-3.0883,-3.0901,-3.0899,-3.0904,-3.0792,-3.0772,-3.0903,-3.0903,-3.0903,-3.0903,-3.0903,-3.0903,-3.0289,-3.0371,-3.0381,-3.0479,-3.0505,-3.0574,-3.0602,-3.0639,-3.0672,-3.0755,-3.0805,-3.0824,-3.086,-3.0922,-3.0976,-3.0983,-3.1006,-3.1027,-3.1032,-3.0926,-3.0912,-3.0899,-3.088,-3.1032,-3.1032,-3.1139,-3.114,-3.1141]}]]